Temp
5 6 8 11 14 14 14 14 15 14 15 15 16 17 16 16 15 15 15 15 14 14 14 14 15 14 13 13 13 12 12 12 12 14 14 14 15 15 16 16 15 14 14
3 5 7 7 10 13 14 14 14 14 14 14 15 15 15 15 15 14 14 13 13 13 14 13 13 13 13 13 12 12 11 12 11 13 14 13 13 14 15 15 15 15 15
2 3 4 7 8 8 12 13 14 14 14 14 14 14 14 15 15 14 15 14 13 13 13 13 13 13 12 12 12 12 11 11 11 11 13 13 13 13 13 14 15 15 14
1 1 3 4 6 9 9 11 13 13 13 14 14 14 14 15 15 15 14 14 14 14 13 13 13 13 13 13 12 12 12 12 12 12 11 12 12 12 12 13 12 13 13
0 1 2 4 5 6 8 10 11 12 12 13 14 13 14 14 15 14 14 14 14 14 14 13 13 13 13 13 13 12 12 12 12 12 12 12 12 10 11 12 10 11 11
1 2 2 3 4 5 6 8 9 10 12 12 13 13 13 14 14 15 15 14 14 14 14 14 13 13 13 13 13 13 13 12 12 12 12 12 12 12 12 11 10 9 9
1 2 3 3 4 5 6 7 8 8 9 11 13 13 13 14 14 16 17 15 14 14 14 14 13 13 13 13 13 13 13 12 12 12 12 12 12 12 12 11 10 10 10
1 2 3 3 4 4 5 7 8 8 8 10 11 13 13 13 14 15 17 16 14 13 14 14 13 13 13 13 13 13 13 13 13 12 12 12 12 12 12 12 12 10 10
1 1 2 3 4 5 5 6 7 8 9 11 12 13 13 13 13 14 14 14 13 13 13 14 14 14 13 13 13 13 13 13 13 13 12 13 13 13 12 11 11 10 10
-0 1 2 3 3 3 4 5 6 7 8 10 12 12 12 10 11 12 12 13 13 12 12 13 13 13 14 14 14 13 13 13 13 13 14 13 12 12 12 12 11 10 10
-0 1 2 1 2 1 2 3 3 5 6 7 7 7 7 6 7 6 7 8 8 9 11 11 12 13 13 13 13 13 13 13 13 13 13 12 12 12 12 12 12 11 10
-1 -0 0 0 0 -0 -0 0 1 1 2 2 2 2 2 2 4 4 5 5 5 5 7 8 9 10 11 11 11 11 11 11 11 10 11 12 12 12 12 12 12 12 11
-1 -1 -1 -0 -1 -1 -2 -2 -1 -1 -1 -1 -1 -1 -1 -1 1 2 3 4 4 5 5 5 6 7 8 9 10 8 9 9 9 9 10 10 11 11 12 12 12 11 11
-1 -1 -1 -1 -1 -2 -2 -2 -3 -2 -2 -2 -2 -2 -2 -2 -2 -1 1 3 4 4 4 4 4 5 5 5 6 7 7 8 8 9 9 9 10 10 11 11 12 11 11
-2 -2 -2 -1 -1 -1 -2 -2 -3 -3 -3 -3 -3 -3 -3 -3 -3 -2 -2 -1 0 1 2 2 1 1 0 1 1 2 3 3 4 5 8 8 9 9 9 10 10 11 11
-3 -3 -3 -3 -2 -2 -2 -2 -2 -3 -3 -3 -3 -4 -3 -3 -2 -1 0 -0 0 0 -1 -2 -2 -2 -2 -1 -1 -1 0 1 1 2 3 4 6 8 9 9 9 10 10
-3 -3 -4 -4 -4 -4 -3 -3 -3 -3 -3 -4 -4 -4 -4 -4 -2 -1 -1 -1 -1 -1 -3 -3 -3 -3 -3 -3 -2 -2 -2 -1 -0 0 1 2 2 3 4 7 8 9 8
-4 -4 -4 -4 -4 -4 -4 -4 -4 -4 -4 -4 -4 -5 -4 -4 -4 -4 -3 -3 -4 -4 -4 -4 -4 -4 -4 -4 -3 -3 -2 -2 -2 -1 -0 0 2 2 2 2 3 4 3
-4 -4 -4 -4 -4 -4 -4 -4 -4 -4 -4 -4 -5 -5 -5 -5 -5 -5 -5 -6 -6 -6 -5 -5 -5 -4 -4 -4 -3 -3 -3 -2 -2 -2 -1 -1 -0 1 1 1 1 2 1
-4 -4 -4 -4 -4 -4 -4 -4 -4 -4 -4 -5 -5 -5 -5 -5 -6 -6 -6 -6 -6 -6 -6 -6 -5 -5 -4 -4 -3 -3 -3 -2 -2 -2 -2 -1 -1 -1 -1 -0 0 0 -1
-4 -4 -4 -4 -4 -4 -4 -4 -5 -5 -5 -5 -5 -5 -5 -6 -6 -7 -7 -7 -7 -7 -6 -6 -5 -5 -4 -4 -3 -3 -3 -3 -2 -2 -2 -2 -2 -1 -1 -1 -1 -1 -1
-4 -4 -5 -4 -4 -4 -4 -5 -5 -5 -5 -6 -6 -6 -6 -6 -6 -6 -7 -7 -7 -7 -7 -6 -5 -5 -4 -4 -3 -3 -3 -3 -2 -2 -2 -2 -2 -2 -2 -2 -1 -1 -1
-4 -4 -4 -4 -4 -4 -4 -5 -5 -5 -5 -6 -6 -6 -6 -6 -6 -6 -6 -6 -8 -8 -7 -7 -7 -6 -4 -3 -2 -2 -2 -2 -2 -2 -2 -2 -2 -2 -2 -2 -2 -2 -2
-2 -3 -4 -4 -4 -5 -5 -5 -5 -5 -5 -6 -6 -6 -6 -6 -7 -7 -6 -6 -5 -5 -5 -5 -5 -5 -4 -4 -3 -2 -2 -2 -1 -1 -1 -1 -1 -2 -2 -3 -3 -3 -3
-2 -3 -3 -4 -5 -5 -5 -5 -5 -5 -5 -6 -6 -6 -6 -6 -6 -7 -6 -6 -5 -4 -4 -5 -5 -4 -4 -3 -3 -2 -2 -1 -1 -1 -1 -1 -1 -2 -2 -3 -3 -3 -3
-1 -2 -3 -4 -4 -4 -5 -5 -5 -5 -5 -6 -6 -6 -7 -7 -7 -7 -6 -6 -6 -5 -4 -4 -4 -4 -3 -3 -3 -2 -2 -2 -1 -1 -1 -1 -1 -2 -2 -2 -3 -3 -3
Height
813 812 811 812 812 815 816 819 821 822 825 826 827 830 833 836 838 840 842 845 846 847 849 850 850 852 854 854 854 855 856 857 855 851 850 851 851 851 851 851 851 851 851
814 812 811 811 809 810 812 815 817 819 821 823 824 826 827 829 832 833 835 837 838 840 840 842 843 845 845 846 847 847 846 845 846 845 844 843 843 843 843 843 842 841 840
815 813 812 811 808 808 807 810 813 815 816 817 819 820 821 823 825 827 827 829 831 831 832 833 832 834 835 835 836 837 838 838 838 838 833 836 834 834 833 833 832 830 830
812 810 810 810 807 805 804 805 806 808 810 811 813 815 815 815 816 818 820 822 823 824 824 825 825 825 824 825 827 827 828 829 828 826 825 825 826 824 826 823 821 820 820
812 808 806 805 804 803 802 801 801 801 803 806 806 807 809 809 810 811 813 814 814 815 815 816 815 814 814 815 817 817 819 818 817 817 815 815 815 814 813 814 813 812 810
814 810 806 803 801 799 798 798 798 797 797 798 800 800 800 800 802 803 803 805 805 804 804 804 805 804 804 804 805 806 806 808 808 808 806 803 800 802 802 802 803 806 805
813 806 802 802 799 795 793 792 792 792 793 792 792 793 792 793 794 795 795 795 795 794 794 795 794 794 794 795 795 796 796 797 797 798 796 792 790 790 794 794 794 790 790
805 799 795 796 794 792 790 788 789 788 788 788 787 786 785 785 786 786 785 786 785 785 786 787 785 785 786 787 786 784 782 781 781 786 785 783 783 782 782 781 780 781 780
797 793 794 790 789 788 787 785 784 783 782 780 780 780 779 781 781 779 780 781 779 778 778 778 777 777 777 779 777 774 772 768 770 768 770 772 772 772 773 774 770 771 766
796 794 792 788 787 787 786 782 780 779 777 774 774 773 773 775 773 773 773 774 772 772 771 769 768 768 768 769 766 764 760 759 759 759 756 755 758 759 759 760 760 757 755
799 796 795 792 788 788 786 780 778 777 773 771 770 770 771 773 771 770 769 768 768 766 764 763 762 761 759 758 755 754 750 751 750 749 747 745 742 742 742 742 742 743 741
804 802 800 795 792 788 786 781 779 778 773 772 772 774 775 773 772 770 768 767 766 764 762 759 757 754 751 749 747 744 742 741 740 738 737 734 728 729 727 724 724 724 722
810 806 803 801 795 793 788 786 782 780 777 778 778 777 776 775 773 771 768 767 765 760 760 757 753 749 746 743 741 738 737 734 731 729 725 721 720 717 715 715 711 710 706
813 810 807 805 801 797 794 792 790 786 784 783 783 783 782 779 775 773 770 765 762 757 756 753 750 747 744 741 737 734 732 728 724 720 716 711 709 706 704 703 699 697 693
821 816 812 808 806 805 802 799 796 794 791 788 789 788 786 783 782 781 776 769 764 761 758 755 750 746 743 741 737 734 730 726 721 717 710 704 699 695 690 690 687 684 678
827 824 822 819 815 811 808 806 802 799 797 796 795 794 792 788 784 780 774 769 765 763 760 757 755 751 748 744 740 734 730 726 721 715 708 700 693 685 679 675 674 671 667
831 828 825 822 818 814 811 809 806 804 803 800 798 795 793 790 785 781 777 773 768 765 764 762 760 756 751 746 742 737 731 727 721 715 707 699 691 682 672 664 660 655 653
835 832 828 825 822 819 815 813 811 808 804 801 799 797 795 792 788 784 781 777 772 770 768 767 764 760 755 749 742 736 730 725 719 713 706 700 691 683 672 664 657 654 655
837 834 832 830 827 824 821 819 816 813 811 809 805 801 799 796 793 789 784 781 779 777 774 771 767 762 758 752 744 737 730 724 720 714 707 700 694 687 680 675 667 665 666
839 837 835 832 830 827 825 822 819 816 814 812 809 807 804 801 795 792 790 788 786 783 779 775 771 765 759 754 745 738 732 727 721 715 710 704 698 692 687 682 679 677 678
841 838 836 834 832 830 827 824 821 819 817 815 813 812 809 806 802 798 795 792 789 786 782 778 772 767 762 756 748 741 736 731 726 719 713 708 704 700 696 691 688 688 688
842 840 837 835 833 831 828 826 824 821 819 817 816 814 811 808 805 801 798 795 792 789 784 780 775 771 765 760 753 746 741 736 731 726 719 715 712 708 704 700 697 696 697
842 840 838 836 833 831 829 827 825 823 821 819 817 815 812 808 804 801 799 796 793 790 786 781 776 772 767 762 758 753 748 742 737 733 728 724 720 717 714 711 709 708 709
841 838 837 835 833 832 830 828 826 825 823 821 818 815 813 810 808 805 801 797 794 790 787 783 779 775 771 766 762 757 753 750 745 740 735 732 729 726 724 723 722 722 721
839 838 835 834 833 832 831 830 827 825 823 820 818 815 812 810 808 805 802 799 795 791 788 785 781 778 774 769 766 762 758 754 750 747 743 740 737 735 733 732 731 732 732
836 835 834 832 831 829 828 826 825 823 821 818 816 814 812 811 808 806 803 800 796 793 789 786 783 780 776 772 769 766 763 759 756 753 750 746 743 742 742 741 739 739 740
Wind_Speed
15 12 7 4 3 8 11 23 30 29 31 33 34 34 35 39 40 41 41 41 41 44 42 41 45 44 38 35 37 36 32 30 25 31 33 29 29 30 31 33 33 37 39
18 17 14 12 4 4 6 10 16 27 28 30 32 33 35 35 37 38 39 37 40 41 43 41 42 39 40 42 35 36 34 35 30 31 30 32 31 33 34 36 39 39 40
18 18 17 16 12 11 7 9 14 11 24 25 29 33 35 37 37 39 42 40 37 40 42 39 44 42 39 38 37 35 34 32 34 33 34 32 34 36 37 39 40 44 45
22 21 19 18 16 15 15 14 14 15 14 23 28 31 33 35 36 37 38 38 39 40 41 38 41 40 40 40 36 35 35 33 31 29 30 32 32 37 38 38 39 45 47
21 20 20 20 18 16 16 17 19 18 16 18 23 28 31 35 36 34 35 38 39 40 40 41 42 44 43 43 36 35 35 33 31 29 29 28 26 25 28 33 34 36 39
16 16 16 20 19 17 16 15 15 18 21 21 24 27 29 34 35 40 37 35 39 38 38 41 41 42 44 47 47 47 45 32 31 29 30 30 34 33 34 34 31 23 12
17 13 14 16 18 18 18 18 19 24 25 26 27 29 30 30 35 36 38 41 39 37 38 38 38 38 40 41 44 48 53 53 52 43 36 36 34 36 33 29 32 32 33
14 13 14 16 17 17 18 19 20 21 24 26 27 28 29 29 35 38 36 39 44 40 38 38 38 40 40 38 41 42 43 47 51 56 57 53 42 36 34 37 40 40 39
16 17 16 16 18 18 18 17 19 22 23 23 25 27 26 26 28 31 33 35 38 41 39 38 39 39 41 42 42 41 40 39 42 42 51 51 52 52 47 32 28 28 24
19 21 16 12 11 12 14 14 13 14 14 15 16 11 9 8 8 13 14 17 22 27 28 33 38 41 43 44 46 42 40 39 38 38 47 48 48 55 51 51 45 27 29
19 16 14 11 10 10 8 7 7 4 3 9 12 12 10 9 11 13 9 6 10 16 20 22 24 28 35 38 42 47 43 41 38 41 42 39 36 42 48 51 54 48 37
21 17 17 19 15 16 13 14 16 14 18 19 19 18 19 19 20 20 18 16 16 17 19 21 25 28 30 29 27 30 34 36 39 33 31 31 30 36 38 42 47 52 54
27 26 23 19 22 22 24 22 23 24 24 22 20 20 23 27 27 27 25 23 22 21 20 21 21 24 26 31 33 32 32 33 29 25 27 30 31 33 36 39 42 48 53
25 27 25 25 20 26 22 25 24 23 22 21 20 20 20 25 30 29 28 27 25 23 23 20 18 18 18 20 22 22 24 26 26 29 31 32 33 32 35 34 36 35 36
20 22 23 23 22 19 24 26 25 32 29 25 22 19 21 23 26 19 21 26 23 18 17 19 23 25 24 24 24 24 25 26 26 27 28 31 31 30 34 33 37 39 38
19 19 20 18 18 19 18 17 24 26 29 28 27 26 23 25 24 20 21 27 25 21 23 22 21 21 19 20 21 24 25 26 27 27 25 25 29 30 33 35 35 36 36
21 22 20 20 20 20 20 19 17 19 21 28 28 27 26 26 26 25 23 23 29 28 24 22 20 21 21 21 21 21 23 27 28 25 24 25 25 24 25 30 32 31 21
16 16 18 19 22 24 23 19 18 19 21 23 28 28 27 26 27 28 27 25 28 28 24 21 21 23 23 22 23 23 25 27 28 27 26 26 25 21 20 20 14 9 10
15 16 15 14 15 16 16 17 19 17 17 18 21 27 26 24 25 24 26 27 22 23 24 24 25 25 26 26 26 26 26 27 27 26 26 24 21 19 20 21 20 25 22
12 12 12 13 14 14 15 15 17 19 18 18 19 22 23 21 25 27 22 22 22 22 23 24 26 27 28 29 29 29 27 27 26 25 24 23 21 19 15 12 13 19 19
11 11 11 11 13 12 14 17 16 15 16 17 16 18 18 20 22 22 19 20 21 22 24 24 25 26 28 29 29 29 28 27 27 26 24 23 21 20 20 22 23 21 19
8 8 10 11 11 12 13 13 14 15 15 13 16 16 16 17 20 24 21 19 18 18 19 20 21 23 24 25 28 29 27 25 24 23 24 24 24 24 23 24 25 25 24
7 8 8 9 9 9 10 11 12 13 13 14 14 14 16 17 17 19 20 19 16 17 18 20 21 23 24 22 22 24 25 24 20 18 19 22 24 24 24 25 23 24 24
7 7 8 7 7 8 9 9 10 11 11 13 14 15 15 14 14 15 17 16 17 18 18 19 20 20 22 23 21 19 19 18 18 17 17 19 20 22 23 24 24 24 23
7 7 7 6 7 8 9 9 9 10 10 10 11 12 14 13 13 13 14 14 14 14 15 16 17 18 19 20 20 19 18 16 16 14 16 18 20 21 22 23 23 23 22
10 9 9 9 10 9 11 11 11 11 11 11 12 13 13 14 13 12 12 13 13 12 12 12 13 14 15 17 17 17 17 16 14 13 13 16 19 20 20 20 21 21 20
Wind_Direction
2 355 7 352 242 265 257 249 247 246 244 241 239 241 239 240 243 243 242 243 240 242 242 241 246 247 245 247 249 247 244 245 247 259 266 265 260 259 263 261 257 253 256
347 338 333 322 294 264 244 255 260 251 249 248 247 245 245 243 245 242 242 237 238 241 243 241 243 245 246 248 245 246 244 241 245 255 255 262 259 262 264 260 256 255 253
340 334 323 314 309 290 261 263 250 270 263 258 257 248 249 247 248 245 245 243 239 242 245 238 245 245 242 244 244 243 244 244 241 248 256 254 262 266 261 259 256 255 254
333 330 321 313 306 297 292 273 262 255 268 259 258 258 255 252 251 246 239 241 242 246 249 245 247 243 242 247 244 245 247 244 242 240 248 252 253 257 252 253 253 256 256
324 323 317 315 311 303 294 290 281 273 269 267 263 258 259 258 253 240 242 243 240 244 246 249 251 250 250 252 243 245 246 244 244 245 246 248 243 234 236 249 247 254 264
308 306 305 305 305 304 302 299 286 274 267 267 260 255 252 254 259 258 254 243 241 240 243 246 250 252 253 255 253 256 250 243 242 242 246 244 245 240 245 241 241 239 260
302 307 307 301 299 300 296 293 285 281 278 273 273 260 253 250 261 265 262 255 247 246 246 248 249 251 254 256 256 258 259 252 251 249 249 246 248 243 242 242 235 235 240
319 322 323 308 304 302 297 292 281 278 280 275 275 254 253 251 257 263 266 261 256 252 251 256 255 253 254 251 254 253 253 257 257 251 249 254 256 254 248 242 242 242 249
338 338 326 323 311 308 301 291 283 280 280 274 269 254 250 254 261 260 261 260 259 259 258 256 256 259 262 260 255 254 255 254 258 270 262 263 265 262 253 246 240 236 243
346 338 338 346 344 322 302 297 291 279 277 277 272 256 256 196 267 267 272 276 275 267 267 265 263 264 266 268 259 252 254 257 252 255 260 261 258 257 257 251 249 238 237
2 2 8 11 13 349 331 342 344 331 33 61 80 73 70 39 27 17 13 348 324 297 282 286 288 281 275 273 270 263 258 261 260 255 252 251 256 256 254 253 249 241 242
30 22 21 34 38 40 45 54 53 56 58 55 51 47 37 32 29 27 24 15 0 337 319 309 303 295 285 289 294 290 283 272 275 265 264 265 257 256 252 247 247 250 249
33 37 33 33 45 45 46 48 47 47 47 41 39 32 24 22 18 16 13 8 2 354 344 335 326 317 312 301 299 303 299 293 286 275 268 270 265 263 264 256 251 250 251
30 34 36 30 37 50 48 51 50 47 48 45 38 31 23 21 16 13 10 5 1 2 359 358 348 339 332 325 326 327 321 305 284 277 277 277 277 271 262 259 254 246 243
24 29 30 31 28 38 49 52 56 57 55 48 37 38 29 24 18 25 25 21 17 18 15 17 17 15 8 360 353 350 347 342 321 310 295 281 274 269 267 262 258 256 248
28 27 31 30 31 37 39 42 48 50 53 55 52 47 38 37 34 35 40 38 33 31 29 21 11 7 2 354 349 344 341 337 334 328 325 312 297 284 271 264 260 257 256
39 39 37 36 36 35 37 37 32 40 44 44 43 45 40 33 37 35 37 40 39 40 29 17 9 2 356 352 347 346 338 335 337 336 331 336 333 319 302 273 264 257 245
41 40 36 37 37 36 34 32 30 29 23 18 27 31 32 30 31 29 31 35 27 27 22 12 4 358 352 351 349 347 346 346 345 343 336 344 357 350 5 6 25 51 88
35 34 36 36 35 34 35 36 36 34 33 26 19 21 17 20 24 29 30 32 20 11 8 4 3 1 355 351 353 354 354 354 354 350 353 351 346 4 20 29 42 68 73
50 40 41 40 40 41 40 38 36 35 35 29 26 21 15 17 18 16 19 20 17 12 7 3 1 3 4 1 0 3 358 356 1 4 3 10 18 21 12 14 56 78 83
58 56 62 57 47 44 36 35 36 37 35 34 26 23 20 23 19 15 13 11 10 11 13 11 11 11 10 10 11 9 7 4 8 13 18 24 31 32 46 56 61 71 73
49 47 49 50 39 38 37 35 32 32 31 22 22 24 25 25 21 21 15 7 1 3 19 19 19 19 16 14 16 17 17 15 18 24 30 37 41 46 50 59 67 71 74
29 28 34 32 28 28 26 25 23 21 22 21 18 13 17 20 18 19 18 14 6 2 6 19 17 19 24 23 23 21 19 21 27 35 48 53 54 55 55 56 61 65 71
6 8 10 3 358 359 1 5 6 8 6 6 6 7 5 6 4 5 10 15 16 19 17 18 20 22 24 23 25 26 27 29 37 49 63 68 71 75 75 71 71 76 76
333 332 334 332 330 326 328 333 339 345 346 346 346 349 353 352 353 352 356 5 12 18 21 21 21 21 25 28 29 28 30 33 40 52 68 77 79 81 84 88 87 85 85
289 292 299 305 308 301 295 303 310 312 314 323 326 329 332 335 332 333 342 351 358 7 16 19 23 23 26 31 32 33 34 37 43 53 68 80 87 88 88 88 90 92 94